[[{"header":{"parameterUnit":"m.s-1","parameterCategory":1,"la1":30.2991,"la2":30.254,"lo1":-89.0895,"lo2":-89.0444,"dy":0.0017,"dx":0.0017,"nx":28,"ny":28,"refTime":"2025-06-22T21:00:00:Z","depth":0,"parameterNumber":2,"parameterNumberName":"U-component_of_WINDS"},"data":[0,0,0,0,0,0,0,0,0,0,0,0,0,0,0,0,0,0,0,0,0,0,0,0,0,0,0,0,0,0,0,0,0,0,0,0,0,0,0,0,0,0,0,0,0,0,0,0,0,0,0,0,0,0,0,0,0,0,-3.2901,-3.29,0,-3.2813,-3.2812,-3.2811,-3.2692,-3.269,-3.2688,-3.2686,-3.2598,-3.2597,-3.2597,0,0,0,0,0,0,0,0,0,0,0,0,0,-3.297,-3.297,-3.2901,-3.29,-3.2899,-3.2813,-3.2812,-3.2811,-3.2692,-3.269,-3.2688,-3.2685,-3.2598,-3.2598,-3.2597,0,0,0,0,0,0,0,0,0,0,0,0,0,-3.2917,-3.2969,-3.2901,-3.2829,-3.2822,-3.2813,-3.2812,-3.281,-3.2693,-3.269,-3.2687,-3.2684,-3.2598,-3.2598,-3.2597,-3.2652,0,0,-3.2595,-3.2594,0,0,0,0,0,0,0,0,-3.292,-3.2915,-3.2841,-3.2834,-3.2826,-3.276,-3.2804,-3.2757,-3.2694,-3.2742,-3.2686,-3.2683,-3.2655,-3.2649,-3.2639,-3.2648,-3.2644,-3.2594,-3.2594,-3.2594,-3.2593,0,0,0,0,0,0,0,-3.2924,-3.2918,-3.2866,-3.284,-3.2831,-3.2803,-3.2792,-3.2794,-3.2716,-3.2737,-3.2729,-3.272,-3.265,-3.264,-3.2636,-3.2643,-3.2594,-3.2594,-3.2593,-3.2593,-3.2695,-3.2698,0,0,0,0,0,0,-3.2938,-3.2922,-3.2869,-3.2863,-3.2867,-3.2804,-3.2792,-3.2784,-3.2716,-3.2702,-3.2722,-3.2715,-3.2643,-3.2637,-3.2633,-3.2693,-3.2594,-3.2593,-3.2593,-3.2692,-3.2696,-3.2699,0,0,0,0,0,0,-3.294,-3.2934,-3.2872,-3.289,-3.288,-3.2806,-3.2799,-3.2784,-3.2774,-3.2704,-3.269,-3.2726,-3.264,-3.2634,-3.2648,-3.2688,-3.2593,-3.2592,-3.2688,-3.2693,-3.2697,-3.2815,0,0,0,0,0,0,-3.2943,-3.2936,-3.2955,-3.2891,-3.288,-3.2889,-3.2801,-3.2785,-3.2773,-3.2762,-3.2704,-3.2692,-3.2637,-3.265,-3.2648,-3.2686,-3.2591,-3.2684,-3.269,-3.2696,-3.2807,-3.2823,-3.2837,0,0,0,0,0,-3.2945,-3.2991,-3.2956,-3.2951,-3.2901,-3.2891,-3.2884,-3.282,-3.2777,-3.2796,-3.2752,-3.2694,-3.2685,-3.2653,-3.2649,-3.2687,-3.2681,-3.2688,-3.2695,-3.28,-3.282,-3.2836,0,0,0,0,0,0,-3.3061,-3.2981,-3.2942,-3.2968,-3.2938,-3.2871,-3.2893,-3.2843,-3.2823,-3.2814,-3.2736,-3.2724,-3.2749,-3.272,-3.2685,-3.2738,-3.2675,-3.2681,-3.2756,-3.2774,-3.2788,-3.2794,-3.2591,0,0,0,0,0,-3.309,-3.3087,-3.3018,-3.3048,-3.3035,-3.2967,-3.296,-3.2914,-3.2879,-3.2865,-3.2821,-3.2791,-3.2781,-3.2776,-3.2763,-3.2803,-3.279,-3.2828,-3.2843,-3.2856,-3.2862,-3.2882,-3.2899,-3.2722,-3.2722,-3.2722,0,0,-3.3148,-3.3105,-3.3107,-3.307,-3.3041,-3.3041,-3.2957,-3.296,-3.2959,-3.2865,-3.2876,-3.2845,-3.2805,-3.2833,-3.2843,-3.281,-3.2908,-3.2865,-3.2875,-3.2874,-3.2891,-3.2908,-3.2923,-3.2727,-3.2726,-3.2725,0,0,-3.3255,-3.3222,-3.3243,-3.3216,-3.3173,-3.3129,-3.3135,-3.3077,-3.3051,-3.3062,-3.2992,-3.2992,-3.2976,-3.2951,-3.2937,-3.304,-3.2986,-3.3038,-3.3114,-3.3136,-3.3149,-3.3161,-3.3198,-3.3212,-3.3045,-3.3045,-3.3045,0,-3.3333,-3.3329,-3.3261,-3.3269,-3.3256,-3.3172,-3.3195,-3.3172,-3.3128,-3.3121,-3.3084,-3.3065,-3.3032,-3.3054,-3.308,-3.3071,-3.3076,-3.3042,-3.3153,-3.3164,-3.3174,-3.3209,-3.3223,-3.3051,-3.3051,-3.305,-3.3049,0,-3.3428,-3.3427,-3.3451,-3.341,-3.3399,-3.3415,-3.3351,-3.3349,-3.3305,-3.3265,-3.3278,-3.3237,-3.3215,-3.3217,-3.3174,-3.3234,-3.3215,-3.3167,-3.3101,-3.3199,-3.323,-3.3242,-3.3061,-3.3058,-3.3056,-3.3055,0,0,-3.3601,-3.3525,-3.3535,-3.3516,-3.3465,-3.3463,-3.3477,-3.3455,-3.3456,-3.3429,-3.3439,-3.343,-3.3386,-3.337,-3.3324,-3.3343,-3.3428,-3.3292,-3.329,-3.3319,-3.3493,-3.3528,-3.3544,-3.3393,-3.3396,-3.3397,-3.3496,0,-3.3697,-3.3714,-3.3655,-3.3687,-3.3687,-3.3609,-3.3621,-3.3592,-3.3557,-3.3552,-3.3513,-3.3507,-3.345,-3.344,-3.3455,-3.3414,-3.3462,-3.3407,-3.3402,-3.3403,-3.3413,-3.356,-3.3597,-3.3692,-3.3508,-3.351,-3.3511,0,-3.381,-3.379,-3.3823,-3.3772,-3.3769,-3.3781,-3.3758,-3.3754,-3.3721,-3.3694,-3.3678,-3.3625,-3.3637,-3.3576,-3.3591,-3.3555,-3.3551,-3.3531,-3.3533,-3.3529,-3.3461,-3.3559,-3.372,-3.3734,-3.3529,-3.3528,-3.3527,0,-3.3933,-3.3915,-3.3932,-3.3919,-3.386,-3.387,-3.3846,-3.381,-3.3802,-3.3783,-3.3777,-3.376,-3.3751,-3.374,-3.3685,-3.3646,-3.3708,-3.3642,-3.3686,-3.3688,-3.37,-3.37,-3.3862,-3.37,-3.37,-3.37,-3.37,0,-3.4046,-3.4069,-3.3987,-3.3997,-3.4022,-3.3955,-3.3982,-3.395,-3.392,-3.3924,-3.3857,-3.3863,-3.3791,-3.379,-3.3747,-3.3767,-3.3764,-3.3743,-3.3731,-3.3748,-3.375,-3.3742,-3.3734,-3.3704,-3.3703,-3.3702,-3.3701,0,-3.4185,-3.4131,-3.4145,-3.4089,-3.4076,-3.4097,-3.4049,-3.4058,-3.402,-3.4026,-3.4024,-3.3964,-3.3959,-3.3904,-3.3888,-3.3859,-3.3896,-3.3872,-3.3907,-3.3899,-3.3946,-3.3942,-3.4107,-3.4125,-3.3954,-3.3955,-3.3957,0,-3.426,-3.4275,-3.4222,-3.422,-3.42,-3.4197,-3.4189,-3.4126,-3.4121,-3.4086,-3.41,-3.409,-3.4078,-3.4074,-3.403,-3.4018,-3.3993,-3.4052,-3.399,-3.4008,-3.3993,-3.3992,-3.3994,-3.4064,-3.4066,-3.4068,-3.4069,0,-3.4397,-3.4371,-3.4361,-3.4344,-3.4336,-3.4319,-3.4298,-3.4301,-3.4232,-3.423,-3.4224,-3.4216,-3.42,-3.4191,-3.4172,-3.4148,-3.4098,-3.409,-3.4099,-3.4116,-3.4135,-3.4125,-3.3941,-3.4085,-3.4084,-3.4083,-3.4082,-3.4081,-3.4506,-3.4517,-3.4482,-3.4475,-3.4453,-3.4436,-3.4441,-3.4405,-3.4399,-3.438,-3.4344,-3.4345,-3.4314,-3.4282,-3.4264,-3.4265,-3.4234,-3.4248,-3.4251,-3.4256,-3.4265,-3.4137,-3.4261,-3.4261,-3.426,-3.426,-3.4259,0,-3.464,-3.4614,-3.4608,-3.4582,-3.4577,-3.4531,-3.4506,-3.4505,-3.4506,-3.4482,-3.4472,-3.4468,-3.446,-3.4417,-3.4405,-3.4414,-3.4391,-3.4413,-3.441,-3.4406,-3.4293,-3.4285,-3.4432,-3.4432,-3.4432,-3.4431,-3.4431,-3.4431,-3.4709,-3.4726,-3.4696,-3.4703,-3.4677,-3.4676,-3.4666,-3.4651,-3.4631,-3.4629,-3.4622,-3.4594,-3.4563,-3.4548,-3.454,-3.4528,-3.4526,-3.4556,-3.4536,-3.4431,-3.4414,-3.4398,-3.4391,-3.4557,-3.4557,-3.4649,-3.465,-3.4651]},{"header":{"parameterUnit":"m.s-1","parameterCategory":1,"la1":30.2991,"la2":30.254,"lo1":-89.0895,"lo2":-89.0444,"dy":0.0017,"dx":0.0017,"nx":28,"ny":28,"refTime":"2025-06-22T21:00:00:Z","depth":0,"parameterNumber":3,"parameterNumberName":"V-component_of_WINDS"},"data":[0,0,0,0,0,0,0,0,0,0,0,0,0,0,0,0,0,0,0,0,0,0,0,0,0,0,0,0,0,0,0,0,0,0,0,0,0,0,0,0,0,0,0,0,0,0,0,0,0,0,0,0,0,0,0,0,0,0,3.3674,3.3675,0,3.3763,3.3764,3.3765,3.3834,3.3835,3.3836,3.3836,3.3923,3.3925,3.3927,0,0,0,0,0,0,0,0,0,0,0,0,0,3.3557,3.3559,3.3674,3.3675,3.3676,3.3763,3.3764,3.3765,3.3834,3.3835,3.3836,3.3837,3.3923,3.3925,3.3927,0,0,0,0,0,0,0,0,0,0,0,0,0,3.3623,3.356,3.3673,3.3721,3.3726,3.3763,3.3764,3.3766,3.3834,3.3835,3.3836,3.3837,3.3922,3.3925,3.3927,3.3923,0,0,3.3935,3.3936,0,0,0,0,0,0,0,0,3.3619,3.3627,3.3713,3.3718,3.3723,3.3789,3.3755,3.3818,3.3834,3.3793,3.3836,3.3837,3.3877,3.3884,3.3898,3.3927,3.393,3.3935,3.3937,3.3938,3.3938,0,0,0,0,0,0,0,3.3615,3.3624,3.3709,3.3714,3.372,3.3736,3.3746,3.3767,3.3828,3.3796,3.3802,3.3812,3.388,3.3895,3.3901,3.3932,3.3935,3.3937,3.3939,3.394,3.3959,3.3958,0,0,0,0,0,0,3.3604,3.362,3.3706,3.3712,3.3673,3.3737,3.3749,3.3767,3.3828,3.3839,3.3811,3.3815,3.3891,3.3898,3.3904,3.3902,3.3938,3.394,3.3941,3.396,3.3959,3.3958,0,0,0,0,0,0,3.3601,3.3611,3.3702,3.3667,3.368,3.3738,3.3757,3.3768,3.3783,3.3839,3.385,3.3815,3.3892,3.39,3.3917,3.3906,3.3941,3.3943,3.3962,3.396,3.3959,3.3898,0,0,0,0,0,0,3.3597,3.3609,3.3609,3.3667,3.3682,3.3716,3.3757,3.3769,3.3788,3.3794,3.3846,3.3856,3.3893,3.3913,3.392,3.391,3.3945,3.3963,3.3961,3.3959,3.3901,3.3895,3.3889,0,0,0,0,0,3.3593,3.3588,3.3609,3.3619,3.3683,3.3715,3.3723,3.3768,3.3787,3.3786,3.3822,3.3854,3.3906,3.3914,3.3923,3.3913,3.3964,3.3961,3.3959,3.3904,3.3896,3.3889,0,0,0,0,0,0,3.3527,3.3596,3.362,3.3635,3.3668,3.3727,3.3728,3.3758,3.3786,3.3791,3.3843,3.3854,3.3865,3.3891,3.3899,3.3911,3.3939,3.3938,3.3894,3.3887,3.3881,3.3874,3.3948,0,0,0,0,0,3.3514,3.3535,3.3595,3.3601,3.3617,3.3669,3.3685,3.3716,3.3753,3.3767,3.3804,3.3837,3.3861,3.3875,3.3901,3.3905,3.3917,3.3903,3.3897,3.3891,3.389,3.3893,3.3887,3.3951,3.3951,3.3951,0,0,3.3487,3.3528,3.3538,3.3589,3.3619,3.3638,3.3681,3.37,3.3714,3.377,3.3788,3.3816,3.3856,3.3867,3.3873,3.3889,3.3874,3.3888,3.3884,3.3885,3.389,3.3883,3.3878,3.3949,3.3949,3.395,0,0,3.3449,3.3482,3.3491,3.352,3.3566,3.36,3.3602,3.3656,3.3677,3.3697,3.3738,3.3755,3.3795,3.3822,3.3841,3.3811,3.3841,3.3817,3.3785,3.3787,3.3782,3.3778,3.3766,3.3761,3.3816,3.3816,3.3816,0,3.3409,3.3442,3.3491,3.3508,3.3528,3.358,3.3588,3.3614,3.3664,3.3676,3.3693,3.3744,3.3774,3.3791,3.3784,3.3798,3.38,3.3811,3.3779,3.3775,3.3772,3.3761,3.3757,3.3813,3.3813,3.3813,3.3813,0,3.3391,3.3412,3.3414,3.3462,3.3483,3.3494,3.3544,3.3558,3.3588,3.362,3.3638,3.3677,3.371,3.3717,3.3745,3.3737,3.3745,3.3769,3.3798,3.3762,3.3752,3.3749,3.3808,3.3809,3.381,3.3811,0,0,3.3313,3.3389,3.3388,3.341,3.3464,3.348,3.3494,3.3528,3.3538,3.3571,3.3582,3.3615,3.3638,3.3659,3.3691,3.3693,3.3665,3.3717,3.3719,3.3705,3.3657,3.3637,3.3631,3.3685,3.3685,3.3684,3.3653,0,3.3282,3.3311,3.3355,3.3369,3.3388,3.3438,3.3449,3.3482,3.3512,3.3532,3.3565,3.3586,3.3616,3.3629,3.3633,3.3667,3.3656,3.367,3.3695,3.3695,3.3682,3.3627,3.3607,3.3575,3.365,3.3649,3.3649,0,3.325,3.3281,3.3297,3.3348,3.3357,3.3367,3.3401,3.342,3.3457,3.3479,3.3502,3.3537,3.3551,3.3578,3.3598,3.3607,3.3619,3.3637,3.3637,3.3641,3.3669,3.3627,3.3566,3.3561,3.3644,3.3644,3.3644,0,3.3191,3.3236,3.3251,3.3268,3.3328,3.3334,3.3359,3.3397,3.3414,3.3443,3.3455,3.3484,3.35,3.3522,3.3563,3.3578,3.3578,3.3608,3.3594,3.3593,3.3592,3.3591,3.353,3.3601,3.3601,3.3601,3.3601,0,3.3151,3.3158,3.3225,3.3234,3.3243,3.3293,3.33,3.3329,3.3363,3.3377,3.3421,3.3433,3.3487,3.3505,3.3537,3.3548,3.3555,3.3571,3.358,3.3567,3.3565,3.3575,3.3578,3.36,3.36,3.36,3.36,0,3.3086,3.3131,3.3151,3.3206,3.322,3.3223,3.327,3.328,3.3312,3.333,3.3336,3.3387,3.341,3.3453,3.3488,3.351,3.3513,3.3528,3.3501,3.3506,3.349,3.349,3.3433,3.3427,3.3502,3.3501,3.35,0,3.3057,3.3064,3.312,3.3134,3.3157,3.3178,3.3196,3.3244,3.3261,3.3303,3.3307,3.3334,3.3358,3.3392,3.3431,3.3458,3.3473,3.3451,3.3477,3.3464,3.3471,3.347,3.347,3.3445,3.3444,3.3443,3.3442,0,3.3002,3.3023,3.3048,3.308,3.31,3.3127,3.3157,3.3165,3.322,3.3235,3.326,3.3279,3.3315,3.334,3.3372,3.3396,3.3427,3.3434,3.3432,3.3419,3.3402,3.341,3.3484,3.3435,3.3436,3.3436,3.3437,3.3437,3.2953,3.2961,3.3002,3.3027,3.3055,3.3081,3.3092,3.3126,3.3148,3.3182,3.3209,3.3231,3.3267,3.3314,3.3335,3.3352,3.3367,3.3365,3.3364,3.3362,3.3357,3.34,3.3358,3.3359,3.3359,3.3359,3.3359,0,3.2899,3.2927,3.295,3.299,3.301,3.3039,3.3073,3.3087,3.3106,3.3137,3.316,3.3188,3.3212,3.3253,3.328,3.3286,3.3301,3.3291,3.3291,3.3295,3.3342,3.3341,3.3279,3.3279,3.3279,3.3279,3.3279,3.3279,3.2873,3.2887,3.2914,3.2941,3.2969,3.2992,3.3009,3.3032,3.3058,3.3087,3.3108,3.3135,3.3169,3.3199,3.3222,3.3234,3.3241,3.3227,3.3242,3.3285,3.3292,3.3299,3.3298,3.3228,3.3228,3.3194,3.3193,3.3193]}]]